Погода в Масеру

Лесото     29°19′54″S   27°29′21″E
темп.,
°C
ветер,
м/с
пор.,
м/с
влажн.,
%
обл.,
%
осадки,
мм/ч
давл.,
гПа
погр.,
м
13 августа, сб
сб1323:00+14св2229100 0.0 101411
02:00+12с113399 0.0 101410
05:00+10ссв22385 0.0 101311
08:00+11ссв2337100 0.0 1014129
11:00+18ссз6920100 0.0 10121253
14:00+20сз81413100 0.0 10082277
17:00+17зсз6918100 0.0 1007434
20:00+11юз223397 0.0 100911
14 августа, вс
вс1423:00+11з2539100 0.0 1012136
02:00+7з33567 0.0 101328
05:00+5зюз22720 0.0 101410
08:00+6зюз46600 0.0 1016549
11:00+9зюз45310 0.0 10161423
14:00+11зюз67250 0.0 10131829
17:00+9зюз78302 0.0 10141742
20:00+5зюз48430 0.0 1019195
15 августа, пн
пн1523:00+3з22492 0.0 102019
02:00+1юз47590 0.0 1023143
05:00−1юз23730 0.0 102439
08:000ююз25630 0.0 1025233
11:00+8ююз34270 0.0 1021653
14:00+12юз33160 0.0 10181062
17:00+12зюз22172 0.0 1018159
20:00+6зюз22275 0.0 102110
16 августа, вт
вт1623:00+4с11300 0.0 102110
02:00+4св223041 0.0 102110
05:00+2всв22300 0.0 102210
08:00+6св22230 0.0 102365
11:00+13с451432 0.0 1021877
14:00+17сз46115 0.0 10171494
17:00+16сз46135 0.0 1016175
20:00+10св221916 0.0 101810
17 августа, ср
ср1723:00+9ссв222120 0.0 101810
02:00+7св22245 0.0 101811
05:00+6св33265 0.0 101716
08:00+8св24255 0.0 1018118
11:00+16сз7102450 0.0 10141258
14:00+18з91519100 0.0 10102062
17:00+15з9141969 0.0 10111828
20:00+9зюз814486 0.0 1015890